Lid_Strength_Index
3 3 3 3 3 3 3 3 3 3 3 3 3 2 2 3 3 3 2 0 2 4 4 3 3 5 5 5 7 5 5 5 5 7 7 7 8 7 7 7 8 8 9 9 8 10 13 5 5 8 6 5 4 4
3 3 3 3 3 3 3 3 3 3 3 3 2 2 2 2 2 3 2 0 0 3 4 1 2 2 3 3 5 4 5 5 5 6 6 6 7 7 7 11 6 11 7 9 9 10 5 4 5 4 4 4 4 4
3 3 3 3 3 3 3 3 3 2 2 2 2 2 2 2 2 2 2 0 1 3 4 3 3 1 1 2 2 5 4 3 4 3 5 6 8 7 9 9 7 6 5 7 7 6 5 5 4 4 3 4 3 3
3 3 3 3 3 3 2 2 2 2 2 2 2 1 1 1 0 1 1 -0 1 3 6 5 1 2 0 1 3 2 3 2 2 3 5 5 7 5 7 6 7 6 6 7 8 6 5 5 4 4 4 3 3 3
3 3 3 3 3 2 2 2 2 2 2 1 1 0 0 -0 -0 -0 -0 -0 -1 3 7 5 2 1 1 1 2 3 3 3 4 4 5 6 5 5 5 6 7 5 7 8 9 5 5 5 4 3 3 3 3 3
3 3 3 3 3 2 2 2 2 2 1 1 0 0 -0 -0 -1 0 3 0 -1 0 4 8 3 3 2 1 2 3 3 3 3 4 5 5 4 5 7 9 5 5 4 4 5 4 4 4 3 3 4 3 3 3
3 3 3 3 3 2 2 2 2 2 1 0 1 0 -0 -0 0 2 4 1 0 -1 5 8 7 3 2 2 2 3 3 3 3 4 5 5 5 5 7 9 5 4 4 4 3 4 4 4 5 3 3 3 3 3
3 3 3 3 3 3 2 2 2 1 1 0 0 0 0 0 1 2 -0 -0 -0 2 4 8 7 5 2 4 5 2 5 4 4 5 4 5 5 6 10 7 5 4 4 4 4 3 4 3 3 3 3 3 3 3
4 3 3 3 3 3 2 2 2 1 0 0 0 1 0 1 2 1 -0 -1 -1 3 7 7 8 9 2 4 4 4 4 7 4 6 5 5 7 10 8 6 5 4 5 4 4 4 4 4 4 4 4 4 4 4
3 3 3 3 3 3 2 2 2 1 1 0 1 2 5 1 1 -1 1 3 3 4 5 9 5 7 5 5 5 5 5 7 9 7 5 7 9 5 4 4 4 4 4 4 5 6 5 5 5 4 4 4 3 3
4 3 3 3 3 3 3 2 3 2 1 1 3 4 1 -0 2 4 7 7 6 7 5 5 5 7 3 7 7 5 6 6 10 8 8 9 11 7 4 4 3 4 4 4 4 4 3 4 4 4 4 3 3 3
4 4 3 3 3 3 3 3 3 1 1 2 2 0 0 3 5 8 8 6 7 9 6 6 6 5 4 3 6 5 7 7 11 6 9 12 8 5 4 4 4 3 4 4 3 3 3 3 3 3 3 3 4 3
4 4 3 3 3 3 3 2 3 3 2 0 2 4 5 5 11 11 12 10 10 7 6 5 7 5 4 3 5 7 9 9 6 9 10 9 6 5 4 4 4 3 3 3 3 2 2 3 2 3 4 4 5 5
4 4 4 3 4 3 3 3 2 2 2 4 6 11 9 10 9 9 9 8 6 5 5 6 6 6 5 7 7 10 8 8 11 12 12 8 6 5 4 3 4 3 3 3 3 3 3 4 4 4 5 6 6 7
4 4 4 3 4 4 3 3 3 1 2 5 6 12 10 7 6 6 5 5 4 4 5 5 6 6 7 8 8 9 10 11 11 11 9 6 4 4 4 4 3 3 3 3 3 3 4 4 5 5 5 6 6 6
4 4 2 4 4 4 4 3 1 2 3 5 6 8 7 8 8 7 6 6 4 4 4 5 7 9 9 9 10 11 11 12 9 7 5 4 4 4 4 3 3 3 3 3 3 3 2 3 3 3 4 5 5 5
4 -0 4 3 4 4 4 2 3 6 7 8 9 7 8 8 8 7 5 5 3 5 8 7 10 10 7 10 11 8 10 8 6 5 4 4 4 4 3 3 3 2 2 2 2 2 2 2 2 3 4 3 4 4
0 -0 2 3 2 0 -0 1 4 6 8 7 8 6 5 6 7 6 5 4 5 6 6 8 6 9 11 12 10 7 6 5 4 4 4 3 3 3 2 3 2 3 2 2 2 2 2 2 3 4 3 3 4 5
1 1 3 3 2 2 2 2 2 6 6 4 4 4 4 4 4 3 4 3 3 4 5 6 8 9 9 7 7 6 5 5 5 4 3 2 2 2 3 2 2 2 2 2 3 3 2 2 2 3 3 3 4 5
3 3 3 3 2 2 4 3 1 5 6 5 4 4 4 4 3 3 4 3 4 5 6 7 8 6 6 5 4 4 4 3 4 4 4 3 2 2 3 3 2 2 2 2 2 3 2 3 2 2 3 3 4 4
4 1 2 1 0 1 3 4 4 4 4 6 4 4 6 4 5 5 5 3 5 6 7 5 5 3 3 3 2 2 2 3 4 3 4 4 3 3 2 2 2 2 2 2 3 3 3 3 2 2 2 3 3 4
-0 2 0 0 2 2 2 1 3 3 5 5 4 4 6 6 6 5 3 6 6 5 4 4 4 3 4 3 2 2 1 2 3 3 4 3 3 3 3 2 2 3 3 2 2 2 2 2 1 2 2 2 2 2
1 1 1 2 4 6 7 1 5 5 7 5 5 7 7 6 4 3 6 5 4 2 2 3 2 2 3 2 2 1 2 2 3 3 3 3 2 2 1 1 1 2 3 2 2 2 2 3 2 1 1 1 1 2
4 2 4 5 5 7 3 6 4 5 5 7 7 8 6 7 4 6 7 5 5 4 3 3 3 3 2 3 3 2 2 1 2 2 1 1 2 2 1 1 1 1 1 1 1 1 1 1 3 1 1 2 2 3
7 7 6 10 4 6 7 7 6 7 8 7 7 7 7 6 7 7 8 6 5 3 3 3 3 3 4 4 2 2 0 1 2 2 1 1 2 2 2 2 2 1 1 2 2 2 2 2 2 1 2 2 3 3
11 5 9 6 5 7 6 8 7 8 7 7 7 5 4 6 8 9 7 5 4 3 3 4 3 3 4 3 3 2 2 1 1 2 2 1 2 3 3 3 3 2 1 1 2 2 2 2 2 2 2 2 5 3
10 7 4 2 4 4 6 5 5 7 8 8 6 7 6 8 9 6 3 2 2 2 1 1 1 3 2 2 1 1 1 0 1 1 1 1 1 1 2 3 3 2 1 1 2 2 2 2 2 2 2 2 2 2
5 5 7 5 5 4 7 7 7 7 7 4 5 7 7 7 7 3 3 1 0 0 1 1 1 0 1 1 1 1 1 1 1 1 1 1 1 1 1 1 1 6 1 1 1 1 2 2 2 2 2 2 2 2
5 5 5 6 6 6 6 7 6 5 3 4 5 6 5 3 1 1 1 0 0 0 2 2 1 1 1 1 0 0 1 1 2 3 4 3 3 2 1 1 1 1 1 1 7 4 2 2 2 2 2 2 2 2
5 3 6 6 7 8 5 3 4 3 2 2 2 3 3 2 1 0 1 1 2 2 2 2 1 1 2 2 2 1 1 1 1 2 3 4 3 2 1 1 1 1 1 1 1 1 5 2 3 2 2 2 2 2
3 4 6 5 7 5 3 3 2 3 3 3 2 3 4 2 1 1 2 1 2 2 2 3 2 1 2 2 2 3 3 1 1 1 2 2 2 2 1 1 1 1 1 1 1 1 1 2 2 2 3 3 3 4
5 5 6 7 6 3 2 4 4 4 4 4 4 3 3 3 4 2 1 1 2 2 5 3 2 1 1 1 1 1 6 1 1 2 2 2 2 2 2 1 1 1 1 2 2 2 2 2 2 2 2 3 3 3
5 5 5 6 6 6 4 5 5 5 5 5 5 4 3 3 5 2 1 1 2 2 2 2 0 0 -0 1 1 1 3 1 4 6 6 6 7 5 3 1 1 2 2 2 3 3 2 2 3 3 3 3 3 3